Regional Weather Roundup
Issued by NWS Charleston, SC

Current Version | Previous Version | Graphics & Text | Print | Product List | Glossary On
Versions: 1 2 3 4 5 6 7 8 9 10 11 12 13 14 15 16 17 18 19 20 21 22 23 24 25 26 27 28 29 30 31 32 33 34 35 36 37 38 39 40 41 42 43 44 45 46 47 48 49 50
000 ASUS42 KCHS 270728 RWRCHS REGIONAL WEATHER ROUNDUP NATIONAL WEATHER SERVICE CHARLESTON SC 300 AM EDT TUE SEP 27 2016 NOTE: "FAIR" INDICATES FEW OR NO CLOUDS BELOW 12,000 FEET WITH NO SIGNIFICANT WEATHER AND/OR OBSTRUCTIONS TO VISIBILITY. NOT ALL STATIONS ARE QUALITY CONTROLLED. USE DATA WITH CAUTION... ESPECIALLY DEWPOINT OBSERVATIONS. SCZ027-030-031-034>040-042>050-270800- ...SOUTHEAST SOUTH CAROLINA... CITY SKY/WX TMP DP RH WIND PRES REMARKS N CHARLESTON CLOUDY 75 72 90 NE5 29.96F WATERFRONT PRK N/A 75 74 97 N5 29.95F MOUNT PLEASANT FAIR 73 72 94 CALM 29.95F JOHNS ISLAND PTSUNNY 75 73 94 CALM 29.95F FOG PINOPOLIS N/A 75 73 94 E6 29.91F MONCKS CORNER FAIR 72 70 94 CALM 29.96F SUMMERVILLE FAIR 72 72 100 N3 29.97F BEAUFORT MCAS MOCLDY 74 72 93 CALM 29.97S BEAUFORT ARPT LGT RAIN 73 72 94 CALM 29.96F HILTON HEAD IS RAIN 73 72 94 CALM 29.97F WALTERBORO MOSUNNY 73 73 100 NW5 29.98S FOG ALLENDALE N/A 72 70 94 CALM 29.97F ...SOUTHERN MIDLANDS AND PEE DEE... CITY SKY/WX TMP DP RH WIND PRES REMARKS GEORGETOWN LGT RAIN 70 68 94 CALM 29.97F KINGSTREE FAIR 70 68 94 CALM 29.98F ORANGEBURG CLOUDY 71 70 96 CALM 29.99F BARNWELL NOT AVBL AIKEN FAIR 64 64 100 CALM 30.03F MANNING FAIR 70 68 94 N5 29.98F COLUMBIA PTCLDY 71 68 90 CALM 29.99F SUMTER CLOUDY 70 67 92 NE1 29.98F FLORENCE CLOUDY 73 70 90 N5 30.00F MYRTLE BEACH CLOUDY 73 64 73 CALM 29.99F N MYRTLE BEACH CLOUDY 73 72 96 NE3 29.98F $$ GAZ063-065-086>088-099>101-113>116-118-119-134>141-150-270800- ...SOUTHEAST GEORGIA... CITY SKY/WX TMP DP RH WIND PRES REMARKS SAVANNAH ARPT MOCLDY 71 69 93 N5 29.96F HUNTER AAF PTCLDY 72 72 100 N5 29.93F FORT STEWART CLEAR 71 69 93 CALM 29.93F STATESBORO CLEAR 71 71 100 NW3 29.98R FOG SYLVANIA NOT AVBL CLAXTON FAIR 69 69 100 CALM 29.97S FOG ...CSRA...CENTRAL AND FAR SOUTHEAST GEORGIA... CITY SKY/WX TMP DP RH WIND PRES REMARKS THOMSON CLEAR 68 68 100 CALM 30.04F AUGUSTA-BUSH CLEAR 66 66 100 CALM 29.99F AUGUSTA-DANIEL CLEAR 72 67 84 N3 30.01F SWAINSBORO FAIR 68 66 94 CALM 30.00F VIDALIA CLEAR 70 70 100 N3 29.98F EASTMAN N/A 68 68 100 CALM 30.01F FOG HAZLEHURST FAIR 71 71 100 S5 29.97F ALMA CLEAR 69 68 96 NW5 29.96F WAYCROSS CLEAR 71 71 100 N5 29.95F JESUP FAIR 72 72 100 NE3 29.95S BAXLEY FAIR 70 70 100 CALM 29.96S BRUNSWICK CLEAR 72 72 100 N3 29.94S SAINT SIMONS PTCLDY 74 72 93 N3 29.92F $$ SCZ027-028-034-036>038-045-046-048>050-GAZ119-141-270800- ...LAKE AND SUPPLEMENTAL COASTAL OBSERVATIONS... STATION/POSITION TIME TEMP WIND PRES WAVE SWELL AIR SEA DIR/SP/G HT/PER HT/PER/DIR (UTC) (F) (DEG/KT/KT) (MB) (FT/S) (FT/S/D) WINYAH BAY 0630 75 240/ 5 1014.0F LAKE MURRAY 0720 74 CALM / 3 1015.2 ACE BASIN NERRS 0645 73 CALM 1015.0S FORT PULASKI 0700 74 81 360/ 4/ 5 1014.6 SAPELO ISLAND 0630 74 10/ 3 1014.0S $$ ANZ835-935-AMZ111-154-330-350-352-354-370-450-454-472-270800- ...C-MAN AND BUOY OBSERVATIONS... STATION/POSITION TIME TEMP WIND PRES WAVE SWELL AIR SEA DIR/SP/G HT/PER HT/PER/DIR (UTC) (F) (DEG/KT/KT) (MB) (FT/S) (FT/S/D) BUOY 41004 0650 80 82 130/ 8/ 10 1013.4F 3/ 5 3/ 60/ 5 BUOY 41008 0650 77 82 110/ 10/ 14 1013.6F 4/ 5 3/ 90/ 5 FOLLY BEACH CMAN 0700 75 350/ 7/ 8 1014.4F CAPERS NEARSHORE 0608 79 81 80/ 6/ 8 1014.6F FRIPP NEARSHORE 0708 73 81 100/ 4/ 8 1015.1R STATION/POSITION TIME TEMP WIND PRES WAVE SWELL AIR SEA DIR/SP/G HT/PER HT/PER/DIR (UTC) (F) (DEG/KT/KT) (MB) (FT/S) (FT/S/D) 5E ST. MARYS GA 0701 82 N/A 3/ 5 FRYING PAN BUOY 0710 79 82 100/ 12/ 14 1014.0 BUOY 41025 0650 79 85 160/ 14/ 16 1016.2F 4/ 5 2/ 70/ 9 CAPE LOOKOUT NC 0700 78 150/ 10/ 11 1015.6F BUOY 41002 0650 81 83 130/ 16/ 19 1014.3F 5/ 6 3/ 60/ 9 BUOY 41010 NOT AVBL ST AUGUSTINE FL 0700 75 83 240/ 4/ 5 1014.1F $$

USA.gov is the U.S. government's official web portal to all federal, state and local government web resources and services.